COSMOS 2545 (760) (45358 NORAD) Tracking and Keplerian Element Data

This shows tracking and keplerian element data for the satellite.

Feedback or suggestion? Click here.




ElementValue
Catalog45358
NameCOSMOS 2545 (760)
Epoch Orbit235
Epoch Day187.24625177
Epoch Year2020
RAAN27.9855
Inclination64.8324
Eccentricity0.0006789
Argument of Perigee249.3694
Mean Anonmoly237.5073
Mean Motion2.13102911
Decay Rate-6.1E-07
L11 45358U 20018A 20187.24625177 -.00000061 00000-0 00000+0 0 9995
L22 45358 64.8324 27.9855 0006789 249.3694 237.5073 2.13102911 2354

Live tracking and technical data element details for COSMOS 2545 (760) (NORAD 45358). COSMOS 2545 (760) can be tracked NOW for your location showing map with azimuth and elevation plus other details from your city location.

Track the satellite on the map from your city or location and see movement details for azimuth, elevation, latitude, longitude, range, height, and movement on the map or in text.







IsCatalogInMostPopularTable: catalog: 45358, numindb: 18
Update: records affected: 1



GetName: 45358 COSMOS 2545 (760)

Hit Count: updated at: Mon, 06 Jul 2020 04:27:44 GMT